�N����,����,�~����,�C��,���x,�C��,����,���ϕ���,�ő�u�ԕ���,�ő厞����,���˗�,�I�_���x,�n�����x,�ő啗���N��,DTYPE
"18/04/13","00:10",0.0,12.9,61.6,1012.1,307.6,2.3,4.4,297.0,0.00,5.7,13.2,"00:00:16",1
"18/04/13","00:20",0.0,12.8,63.7,1012.6,311.6,2.3,4.7,332.0,0.00,6.1,13.0,"00:12:20",1
"18/04/13","00:30",0.0,12.7,65.4,1012.6,296.2,2.1,4.3,343.2,0.00,6.4,13.2,"00:29:44",1
"18/04/13","00:40",0.0,12.7,65.7,1012.8,319.9,2.7,4.9,334.1,0.00,6.5,13.0,"00:30:24",1
"18/04/13","00:50",0.0,12.5,67.1,1012.8,305.3,2.5,4.9,330.8,0.00,6.6,13.2,"00:42:12",1
"18/04/13","01:00",0.0,12.3,67.4,1012.6,332.2,2.6,5.5,344.4,0.00,6.5,13.0,"00:52:38",1
"18/04/13","01:10",0.0,12.3,67.1,1012.6,322.6,2.2,4.0,314.8,0.00,6.4,12.8,"01:04:48",1
"18/04/13","01:20",0.0,12.1,68.3,1012.8,313.4,1.7,3.5,349.0,0.00,6.5,12.9,"01:19:56",1
"18/04/13","01:30",0.0,12.2,66.5,1013.0,334.0,2.0,4.3,333.4,0.00,6.2,12.9,"01:23:00",1
"18/04/13","01:40",0.0,11.9,66.9,1013.0,317.4,1.7,3.9,353.7,0.00,6.0,12.8,"01:38:30",1
"18/04/13","01:50",0.0,11.4,67.8,1013.0,298.3,1.6,2.6,326.0,0.00,5.7,12.8,"01:45:44",1
"18/04/13","02:00",0.0,11.5,68.0,1012.8,337.4,1.7,3.7,346.7,0.00,5.8,12.6,"01:50:36",1
"18/04/13","02:10",0.0,11.3,67.0,1012.8,311.0,1.5,2.2,323.0,0.00,5.4,12.7,"02:01:50",1
"18/04/13","02:20",0.0,11.0,67.1,1012.8,304.3,1.7,2.7,281.2,0.00,5.2,12.6,"02:19:58",1
"18/04/13","02:30",0.0,10.6,68.2,1012.8,324.0,2.0,2.8,336.5,0.00,5.0,12.6,"02:25:52",1
"18/04/13","02:40",0.0,10.5,68.4,1012.6,320.8,2.0,2.9,335.4,0.00,5.0,12.6,"02:30:32",1
"18/04/13","02:50",0.0,10.5,67.5,1013.0,321.6,2.0,3.6,328.5,0.00,4.8,12.4,"02:45:36",1
"18/04/13","03:00",0.0,10.3,67.7,1013.0,329.4,1.7,3.5,316.4,0.00,4.6,12.3,"02:56:48",1
"18/04/13","03:10",0.0,10.3,70.3,1013.5,321.8,2.0,3.5,312.2,0.00,5.2,12.3,"03:09:12",1
"18/04/13","03:20",0.0,10.1,69.0,1013.3,328.4,1.6,2.7,300.0,0.00,4.7,12.4,"03:13:04",1
"18/04/13","03:30",0.0,9.6,71.0,1013.3,308.7,1.3,2.0,332.2,0.00,4.6,12.3,"03:20:40",1
"18/04/13","03:40",0.0,8.9,71.0,1013.3,335.1,1.6,2.4,334.0,0.00,4.0,12.1,"03:31:20",1
"18/04/13","03:50",0.0,8.3,73.2,1013.8,322.0,1.6,2.2,318.2,0.00,3.8,12.2,"03:42:48",1
"18/04/13","04:00",0.0,8.3,76.2,1013.8,309.7,1.8,2.8,318.5,0.00,4.4,12.0,"03:59:04",1
"18/04/13","04:10",0.0,8.9,71.7,1014.0,316.4,1.8,2.8,320.6,0.00,4.1,12.0,"04:04:24",1
"18/04/13","04:20",0.0,9.9,69.2,1014.2,285.4,1.8,4.8,265.1,0.00,4.6,12.0,"04:17:00",1
"18/04/13","04:30",0.0,10.0,66.8,1014.0,318.9,2.0,4.0,321.3,0.00,4.2,11.9,"04:28:34",1
"18/04/13","04:40",0.0,9.6,66.9,1014.0,299.6,1.0,1.9,312.9,0.00,3.8,11.8,"04:30:08",1
"18/04/13","04:50",0.0,9.3,69.6,1014.5,297.6,1.1,2.0,318.2,0.00,4.1,11.7,"04:46:08",1
"18/04/13","05:00",0.0,9.3,71.9,1014.5,309.8,1.6,3.1,300.1,0.00,4.5,11.7,"04:59:12",1
"18/04/13","05:10",0.0,9.8,68.9,1014.7,342.9,1.3,3.3,323.7,0.00,4.4,11.7,"05:01:20",1
"18/04/13","05:20",0.0,9.1,72.7,1015.2,286.3,1.5,2.6,358.4,0.00,4.5,11.8,"05:12:08",1
"18/04/13","05:30",0.0,9.7,73.8,1015.4,300.8,1.8,2.9,208.7,0.00,5.3,11.7,"05:21:04",1
"18/04/13","05:40",0.0,9.9,69.0,1015.9,309.3,1.5,2.7,338.9,0.00,4.5,11.7,"05:33:36",1
"18/04/13","05:50",0.0,9.1,72.8,1015.9,348.1,0.8,2.5,337.2,0.00,4.5,11.7,"05:49:44",1
"18/04/13","06:00",0.0,8.7,76.7,1015.9,311.7,1.3,2.6,343.9,0.00,4.9,11.7,"05:56:56",1
"18/04/13","06:10",0.0,8.5,79.2,1016.1,246.7,0.6,1.9,325.2,0.00,5.1,11.7,"06:09:52",1
"18/04/13","06:20",0.0,8.6,80.8,1016.6,318.8,1.6,3.2,344.6,0.00,5.5,11.6,"06:10:48",1
"18/04/13","06:30",0.0,8.7,81.6,1016.6,297.0,1.3,2.1,327.5,0.02,5.8,11.6,"06:28:08",1
"18/04/13","06:40",0.0,9.2,80.6,1017.1,328.8,2.0,3.1,337.0,0.01,6.1,11.6,"06:35:22",1
"18/04/13","06:50",0.0,10.4,76.4,1017.1,287.7,1.8,3.6,239.4,0.04,6.5,11.7,"06:42:16",1
"18/04/13","07:00",0.0,11.2,68.6,1017.8,320.6,1.1,2.2,332.3,0.06,5.7,11.6,"06:52:40",1
"18/04/13","07:10",0.0,12.1,60.3,1018.0,328.4,1.6,2.9,326.1,0.09,4.7,11.8,"07:05:20",1
"18/04/13","07:20",0.0,12.4,51.0,1018.2,335.2,2.3,4.8,341.9,0.10,2.6,11.7,"07:14:32",1
"18/04/13","07:30",0.0,12.6,49.2,1018.2,338.7,2.3,3.9,340.4,0.12,2.3,11.8,"07:24:08",1
"18/04/13","07:40",0.0,12.5,47.0,1018.7,348.0,2.2,5.0,350.8,0.12,1.5,11.8,"07:39:04",1
"18/04/13","07:50",0.0,13.4,44.4,1018.5,353.8,2.1,4.1,344.4,0.19,1.6,12.0,"07:45:28",1
"18/04/13","08:00",0.0,13.0,45.0,1018.5,358.2,2.2,5.1,15.0,0.14,1.4,11.9,"07:58:08",1
"18/04/13","08:10",0.0,13.1,44.7,1018.7,356.8,2.3,4.3,35.4,0.14,1.4,12.1,"08:02:16",1
"18/04/13","08:20",0.0,13.9,41.3,1018.7,348.5,2.3,6.7,340.4,0.24,1.0,12.3,"08:10:48",1
"18/04/13","08:30",0.0,14.0,40.5,1018.5,341.4,2.3,5.4,333.2,0.27,0.8,12.4,"08:26:16",1
"18/04/13","08:40",0.0,14.2,39.1,1019.0,352.2,2.0,4.0,341.1,0.31,0.5,12.4,"08:32:16",1
"18/04/13","08:50",0.0,14.1,37.9,1018.7,4.7,2.0,3.9,354.7,0.29,0.0,12.7,"08:48:08",1
"18/04/13","09:00",0.0,14.5,36.0,1019.0,8.0,1.8,4.1,356.3,0.34,-0.3,12.6,"08:53:12",1
"18/04/13","09:10",0.0,15.1,37.0,1019.0,4.7,2.0,5.7,336.8,0.37,0.6,12.8,"09:01:28",1
"18/04/13","09:20",0.0,15.3,36.6,1018.5,31.4,1.5,3.7,0.3,0.39,0.6,12.8,"09:10:32",1
"18/04/13","09:30",0.0,15.4,38.8,1019.0,327.5,2.5,5.6,333.1,0.41,1.5,13.1,"09:23:44",1
"18/04/13","09:40",0.0,15.4,37.2,1018.5,327.6,3.5,6.8,322.8,0.43,0.9,13.4,"09:36:48",1
"18/04/13","09:50",0.0,15.5,36.6,1018.7,340.2,3.9,7.9,335.7,0.45,0.8,13.5,"09:49:04",1
"18/04/13","10:00",0.0,15.9,35.0,1018.5,337.0,3.6,7.5,335.2,0.46,0.5,13.7,"09:50:24",1
"18/04/13","10:10",0.0,16.3,36.0,1018.7,338.6,3.5,6.5,347.2,0.48,1.3,13.7,"10:01:52",1
"18/04/13","10:20",0.0,16.8,36.5,1018.7,327.6,2.1,6.7,325.2,0.50,1.9,14.2,"10:10:16",1
"18/04/13","10:30",0.0,16.4,34.4,1018.2,333.0,2.2,4.5,335.4,0.51,0.7,14.3,"10:27:52",1
"18/04/13","10:40",0.0,16.7,35.2,1018.2,349.5,2.6,6.5,26.7,0.53,1.3,14.7,"10:38:16",1
"18/04/13","10:50",0.0,16.4,31.6,1018.2,12.6,1.8,5.0,350.4,0.54,-0.5,14.9,"10:48:16",1
"18/04/13","11:00",0.0,16.6,30.7,1018.5,16.3,2.0,4.2,18.6,0.55,-0.7,15.0,"10:54:00",1
"18/04/13","11:10",0.0,16.6,35.6,1018.0,4.4,3.1,7.0,328.2,0.56,1.4,15.2,"11:04:16",1
"18/04/13","11:20",0.0,17.0,35.9,1018.2,28.3,2.3,5.2,71.0,0.56,1.8,15.3,"11:14:48",1
"18/04/13","11:30",0.0,16.6,33.2,1018.2,0.5,2.3,5.9,17.7,0.57,0.4,15.6,"11:28:24",1
"18/04/13","11:40",0.0,16.4,31.3,1018.2,18.8,2.3,4.7,43.2,0.57,-0.6,15.8,"11:30:24",1
"18/04/13","11:50",0.0,17.0,34.4,1018.0,349.1,3.1,6.0,341.4,0.57,1.2,15.9,"11:44:56",1
"18/04/13","12:00",0.0,16.8,31.4,1018.2,351.1,3.1,6.7,346.6,0.57,-0.2,16.0,"11:55:28",1
"18/04/13","12:10",0.0,16.7,33.3,1018.0,348.5,3.4,6.3,354.7,0.58,0.5,16.2,"12:06:16",1
"18/04/13","12:20",0.0,17.0,33.6,1018.0,348.4,4.0,10.1,345.5,0.58,0.9,16.3,"12:16:00",1
"18/04/13","12:30",0.0,16.8,34.7,1017.5,337.6,4.2,9.1,332.0,0.57,1.2,16.5,"12:21:04",1
"18/04/13","12:40",0.0,17.1,34.1,1017.8,347.0,3.7,9.5,339.9,0.57,1.2,16.5,"12:34:32",1
"18/04/13","12:50",0.0,16.4,32.2,1018.0,354.4,3.5,7.1,332.4,0.57,-0.2,16.8,"12:41:44",1
"18/04/13","13:00",0.0,16.8,32.9,1018.0,349.8,3.7,10.8,336.2,0.56,0.4,17.1,"12:59:04",1
"18/04/13","13:10",0.0,17.2,32.3,1018.0,334.9,3.9,8.1,345.3,0.56,0.5,17.2,"13:00:08",1
"18/04/13","13:20",0.0,16.6,31.4,1017.8,2.2,3.0,7.8,338.7,0.55,-0.4,17.2,"13:10:08",1
"18/04/13","13:30",0.0,16.9,30.9,1017.3,7.2,2.5,6.2,346.3,0.53,-0.3,17.1,"13:20:02",1
"18/04/13","13:40",0.0,17.3,31.4,1017.8,6.8,2.7,6.8,323.3,0.53,0.2,17.2,"13:34:16",1
"18/04/13","13:50",0.0,17.0,31.6,1017.1,13.6,2.7,7.2,51.0,0.52,0.1,17.3,"13:43:52",1
"18/04/13","14:00",0.0,16.8,31.5,1017.8,9.3,3.1,6.8,23.5,0.51,-0.2,17.3,"13:55:36",1
"18/04/13","14:10",0.0,17.2,34.8,1017.3,7.5,2.6,4.7,347.2,0.50,1.6,17.5,"14:08:24",1
"18/04/13","14:20",0.0,17.1,32.4,1017.5,2.8,2.2,5.6,3.7,0.49,0.5,17.5,"14:15:12",1
"18/04/13","14:30",0.0,16.5,30.1,1017.8,3.3,2.8,6.7,333.2,0.47,-1.0,17.5,"14:20:56",1
"18/04/13","14:40",0.0,16.8,31.7,1017.3,3.1,2.8,7.3,335.5,0.46,-0.1,17.6,"14:36:08",1
"18/04/13","14:50",0.0,16.5,32.2,1017.3,19.4,2.1,4.8,60.7,0.44,-0.1,17.6,"14:48:00",1
"18/04/13","15:00",0.0,16.6,31.5,1016.8,345.8,2.6,6.3,351.6,0.42,-0.3,17.4,"14:52:16",1
"18/04/13","15:10",0.0,16.9,32.0,1017.1,357.1,2.7,5.9,335.8,0.40,0.2,17.5,"15:04:32",1
"18/04/13","15:20",0.0,16.5,33.2,1017.3,339.7,3.7,7.1,321.1,0.38,0.3,17.4,"15:18:48",1
"18/04/13","15:30",0.0,16.0,33.6,1017.1,341.6,4.0,9.5,339.4,0.35,0.0,17.5,"15:26:32",1
"18/04/13","15:40",0.0,16.5,34.2,1017.8,340.7,3.4,8.7,346.4,0.33,0.7,17.5,"15:37:44",1
"18/04/13","15:50",0.0,16.1,35.2,1017.8,333.6,4.2,10.0,334.1,0.30,0.8,17.3,"15:46:32",1
"18/04/13","16:00",0.0,16.4,35.9,1017.3,349.4,3.2,6.7,352.5,0.28,1.3,17.3,"15:51:12",1
"18/04/13","16:10",0.0,16.4,36.5,1018.0,343.4,2.8,6.4,337.4,0.25,1.5,17.1,"16:05:28",1
"18/04/13","16:20",0.0,16.0,33.8,1018.5,343.8,3.1,6.2,350.6,0.23,0.1,17.1,"16:16:00",1
"18/04/13","16:30",0.0,15.5,33.2,1018.2,338.3,3.9,9.3,339.4,0.20,-0.6,16.9,"16:20:32",1
"18/04/13","16:40",0.0,15.3,34.7,1018.5,338.2,3.5,8.0,343.2,0.17,-0.1,16.9,"16:38:26",1
"18/04/13","16:50",0.0,15.1,33.9,1018.5,347.5,3.4,6.2,355.5,0.15,-0.6,16.4,"16:47:04",1
"18/04/13","17:00",0.0,14.6,35.7,1018.5,350.3,3.6,7.2,351.3,0.13,-0.4,16.5,"16:59:30",1
"18/04/13","17:10",0.0,14.5,36.2,1018.2,355.7,3.0,6.0,4.8,0.10,-0.3,16.5,"17:08:16",1
"18/04/13","17:20",0.0,14.0,38.3,1018.0,344.4,3.0,5.5,349.5,0.05,0.1,16.0,"17:10:24",1
"18/04/13","17:30",0.0,14.1,38.4,1018.2,341.6,3.0,5.6,344.1,0.06,0.2,16.1,"17:28:32",1
"18/04/13","17:40",0.0,13.8,39.2,1018.2,336.3,2.8,4.8,348.0,0.03,0.2,16.1,"17:31:36",1
"18/04/13","17:50",0.0,13.5,39.9,1018.0,336.6,2.7,4.8,328.3,0.03,0.2,15.9,"17:48:00",1
"18/04/13","18:00",0.0,13.1,40.1,1018.2,329.1,2.6,5.2,347.2,0.01,-0.1,15.7,"17:55:36",1
"18/04/13","18:10",0.0,12.8,40.6,1018.7,329.4,2.2,3.3,334.8,0.00,-0.2,15.5,"18:02:32",1
"18/04/13","18:20",0.0,12.4,42.8,1018.5,336.3,2.5,4.2,333.1,0.00,0.2,15.4,"18:17:40",1
"18/04/13","18:30",0.0,12.1,44.3,1018.5,321.2,3.2,4.4,325.5,0.00,0.4,15.3,"18:20:52",1
"18/04/13","18:40",0.0,11.6,46.3,1018.7,295.1,1.7,2.7,320.6,0.00,0.5,15.0,"18:30:24",1
"18/04/13","18:50",0.0,11.4,48.2,1018.5,313.4,2.3,3.3,336.5,0.00,0.9,15.0,"18:44:44",1
"18/04/13","19:00",0.0,11.1,50.1,1018.5,319.6,2.2,3.4,330.2,0.00,1.1,14.9,"18:54:04",1
"18/04/13","19:10",0.0,10.6,52.3,1018.5,301.7,1.5,2.0,317.4,0.00,1.3,14.8,"19:05:18",1
"18/04/13","19:20",0.0,10.4,55.5,1018.5,319.6,1.8,2.6,313.9,0.00,1.9,14.3,"19:13:08",1
"18/04/13","19:30",0.0,10.4,57.2,1018.7,324.5,2.2,3.2,343.0,0.00,2.3,14.5,"19:27:18",1
"18/04/13","19:40",0.0,10.4,59.0,1018.2,322.8,2.0,2.7,337.4,0.00,2.8,14.3,"19:35:04",1
"18/04/13","19:50",0.0,10.6,57.1,1018.7,323.0,2.1,4.0,345.9,0.00,2.5,14.2,"19:43:40",1
"18/04/13","20:00",0.0,10.7,57.1,1018.5,296.8,1.7,3.3,322.4,0.00,2.6,14.3,"19:58:20",1
"18/04/13","20:10",0.0,10.6,57.2,1019.2,318.6,2.3,3.2,327.2,0.00,2.5,14.1,"20:00:58",1
"18/04/13","20:20",0.0,10.3,59.9,1018.2,318.9,2.2,3.5,344.3,0.00,2.9,14.1,"20:10:22",1
"18/04/13","20:30",0.0,10.5,61.0,1018.7,323.5,3.0,5.8,316.9,0.00,3.3,13.8,"20:21:04",1
"18/04/13","20:40",0.0,10.4,62.2,1019.0,327.0,3.4,6.7,348.3,0.00,3.5,13.7,"20:32:04",1
"18/04/13","20:50",0.0,10.3,62.9,1019.0,307.7,2.2,4.5,319.4,0.00,3.6,13.8,"20:40:16",1
"18/04/13","21:00",0.0,10.3,63.5,1019.0,322.2,2.2,3.5,324.9,0.00,3.7,13.8,"20:59:46",1
"18/04/13","21:10",0.0,10.2,64.4,1019.0,336.3,2.7,4.1,345.1,0.00,3.8,13.6,"21:00:50",1
"18/04/13","21:20",0.0,10.0,63.1,1018.7,329.9,3.1,4.5,332.4,0.00,3.4,13.7,"21:13:08",1
"18/04/13","21:30",0.0,9.9,63.1,1019.2,328.5,2.7,4.5,331.4,0.00,3.3,13.6,"21:20:34",1
"18/04/13","21:40",0.0,9.6,63.9,1019.2,318.4,2.2,4.0,325.6,0.00,3.1,13.4,"21:31:52",1
"18/04/13","21:50",0.0,9.3,65.2,1019.0,309.3,2.1,4.0,342.0,0.00,3.1,13.4,"21:41:38",1
"18/04/13","22:00",0.0,9.0,66.3,1018.7,316.1,1.8,2.8,309.9,0.00,3.1,13.2,"21:51:04",1
"18/04/13","22:10",0.0,8.5,69.1,1018.7,300.0,1.3,2.1,318.7,0.00,3.2,13.2,"22:09:28",1
"18/04/13","22:20",0.0,8.5,70.5,1018.5,302.6,1.8,2.9,311.9,0.00,3.5,13.1,"22:15:52",1
"18/04/13","22:30",0.0,8.4,71.3,1019.0,291.0,1.6,2.6,328.8,0.00,3.6,12.9,"22:21:20",1
"18/04/13","22:40",0.0,8.2,71.6,1018.5,300.4,2.0,2.6,317.4,0.00,3.4,12.9,"22:31:28",1
"18/04/13","22:50",0.0,7.9,72.1,1018.7,307.8,2.0,2.6,319.2,0.00,3.2,12.9,"22:42:16",1
"18/04/13","23:00",0.0,7.9,73.8,1018.2,321.6,2.3,3.4,338.7,0.00,3.6,12.6,"22:56:56",1
"18/04/13","23:10",0.0,8.0,74.6,1018.2,308.9,1.7,2.8,322.1,0.00,3.8,12.6,"23:00:24",1
"18/04/13","23:20",0.0,8.2,73.7,1018.5,317.8,2.2,3.7,322.7,0.00,3.8,12.6,"23:17:52",1
"18/04/13","23:30",0.0,8.4,73.5,1018.5,329.6,2.2,3.7,338.8,0.00,4.0,12.3,"23:20:24",1
"18/04/13","23:40",0.0,8.3,73.8,1018.5,332.0,2.1,3.1,332.8,0.00,3.9,12.4,"23:35:36",1
"18/04/13","23:50",0.0,8.1,74.5,1018.5,331.0,2.1,3.3,319.4,0.00,3.9,12.4,"23:42:56",1
"18/04/13","24:00",0.0,7.8,76.0,1018.2,332.5,2.2,3.4,333.7,0.00,3.9,12.5,"23:52:16",1
